Home > Weather > Bad Salzuflen > Past weeks

Flag for Germany Past Weather in Bad Salzuflen, North Rhine-Westphalia, Germany — Yesterday and Last 2 Weeks

Now
63 °F

Mild.


Feels Like: 63 °F
Forecast: 57 / 69 °F
Wind: 6 mph from Southwest

Location: Bueckeburg

Current Time: Jul 30, 2016 at 4:02:48 AM

Latest Report: Jul 30, 2016 at 3:20 AM


Visibility: 4 mi

Pressure: 29.86 "Hg

Humidity: 83%

Dew Point: 57 °F

Location of Bad SalzuflenLocation

Past Weather in Bad Salzuflen — Graph

°F

Bad Salzuflen Temperature Yesterday

Maximum temperature yesterday: 73 °F (at 5:20 PM)
Minimum temperature yesterday: 63 °F (at 5:20 AM)
Average temperature yesterday: 67 °F

High & Low Weather Summary for the Past Weeks

 TemperatureHumidityPressure
High90 °F (Jul 20, 3:20 PM)100% (Jul 17, 3:20 AM)30.24 "Hg (Jul 17, 3:20 AM)
Low54 °F (Jul 15, 3:20 AM)28% (Jul 17, 4:20 PM)29.83 "Hg (Jul 29, 5:20 PM)
Average70 °F70%30.05 "Hg
* Reported Jul 15 2:20 AM — Jul 30 2:20 AM, Bad Salzuflen, Weather by CustomWeather, © 2016

Note: Actual official high and low records may vary slightly from our data, if they occured in-between our weather recording intervals... More about our weather records

Advertising

Bad Salzuflen Weather History for the Previous 24 Hours

Scroll right to see more
 ConditionsComfort  
Time TempWeatherWind HumidityBarometerVisibility
2:20 AM
Sat, Jul 30
64 °FMild.6 mph78%29.86 "Hg3 mi
1:20 AM64 °FMild.7 mph78%29.86 "Hg3 mi
12:20 AM66 °FMild.6 mph78%29.86 "Hg3 mi
11:20 PM
Fri, Jul 29
68 °FMild.6 mph78%29.86 "Hg3 mi
10:20 PM68 °FMild.6 mph78%29.86 "Hg3 mi
9:20 PM68 °FMild.6 mph73%29.83 "Hg4 mi
8:20 PM72 °FMild.8 mph65%29.83 "Hg3 mi
7:20 PM73 °FMild.10 mph61%29.83 "Hg3 mi
6:20 PM72 °FMild.10 mph65%29.83 "Hg3 mi
5:20 PM73 °FPartly sunny.15 mph65%29.83 "HgN/A
4:20 PM70 °FPartly sunny.7 mph83%29.86 "HgN/A
3:20 PM70 °FPartly sunny.12 mph69%29.86 "HgN/A
2:20 PM72 °FBroken clouds.9 mph61%29.86 "HgN/A
1:20 PM72 °FBroken clouds.13 mph65%29.86 "HgN/A
12:20 PM70 °FBroken clouds.12 mph69%29.89 "HgN/A
11:20 AM66 °FPartly sunny.10 mph78%29.89 "HgN/A
10:20 AM64 °FPartly sunny.10 mph83%29.89 "HgN/A
9:48 AM63 °FPartly sunny.13 mph83%29.89 "HgN/A
9:20 AM64 °FBroken clouds.12 mph78%29.89 "HgN/A
8:20 AM64 °FBroken clouds.9 mph83%29.89 "HgN/A
7:20 AM63 °FPartly sunny.3 mph88%29.89 "HgN/A
6:20 AM63 °FFog.7 mph94%29.89 "Hg3 mi
5:20 AM63 °FLight rain. Partly cloudy.6 mph94%29.89 "Hg4 mi
4:20 AM64 °FPassing clouds.5 mph83%29.89 "HgN/A
Weather by CustomWeather, © 2016

See weather overviewHow to use our weather pages